Regional Weather Roundup
Issued by NWS Wilmington, NC

Home | Current Version | Previous Version | Text Only | Print | Product List | Glossary On
Versions: 1 2 3 4 5 6 7 8 9 10 11 12 13 14 15 16 17 18 19 20 21 22 23 24 25 26 27 28 29 30 31 32 33 34 35 36 37 38 39 40 41 42 43 44 45 46 47 48 49 50
000
ASUS42 KILM 241213
RWRILM
RWRILM
REGIONAL HOURLY WEATHER ROUNDUP
NATIONAL WEATHER SERVICE WILMINGTON NC
800 AM EDT SUN MAY 24 2015

NOTE: "FAIR" INDICATES FEW OR NO CLOUDS BELOW 12,000 FEET WITH NO
SIGNIFICANT WEATHER AND/OR OBSTRUCTIONS TO VISIBILITY.

...............WFO WILMINGTON COUNTY WARNING AREA...............

......COASTAL NC AND SC COUNTIES......

CITY           SKY/WX    TMP DP  RH WIND       PRES   REMARKS
WILMINGTON     SUNNY     67  62  84 NE3       30.40R
N MYRTLE BEACH SUNNY     71  59  65 N6        30.38R
MYRTLE BEACH   MOSUNNY   75  57  53 SE14      30.39R

......INLAND NC AND SC COUNTIES.......

CITY           SKY/WX    TMP DP  RH WIND       PRES   REMARKS
LUMBERTON      SUNNY     65  59  81 CALM      30.41R
ELIZABETHTOWN  SUNNY     60  58  94 CALM      30.41R
WHITEVILLE     SUNNY     63  59  86 CALM      30.40R
FLORENCE       MOSUNNY   64  58  80 NE3       30.41R
DARLINGTON     SUNNY     63  55  77 NE3       30.43R

....................REST OF NORTH CAROLINA......................

.........EASTERN NC.........

CITY           SKY/WX    TMP DP  RH WIND       PRES   REMARKS
CAPE HATTERAS  SUNNY     68  57  68 E6        30.41S
JACKSONVILLE   SUNNY     63  57  82 N3        30.42S
MOREHEAD CITY  SUNNY     69  66  90 NE5       30.41R
KENANSVILLE    SUNNY     63  60  89 CALM      30.44R
NEW BERN       SUNNY     67  62  84 CALM      30.43R
ELIZABETH CITY SUNNY     66  56  70 SE7       30.43R

.........CENTRAL NC.........

CITY           SKY/WX    TMP DP  RH WIND       PRES   REMARKS
RALEIGH DURHAM MOSUNNY   63  56  78 CALM      30.43R
ROCKY MOUNT    SUNNY     62  57  83 CALM      30.43R
ROANOKE RAPIDS NOT AVBL
FAYETTEVILLE   SUNNY     63  57  81 NE5       30.42R
HOFFMAN        SUNNY     60  56  87 N2        30.46R

.........WESTERN NC.........

CITY           SKY/WX    TMP DP  RH WIND       PRES   REMARKS
CHARLOTTE      MOSUNNY   63  54  72 CALM      30.43R
GREENSBORO     MOSUNNY   63  53  70 W5        30.42S
HICKORY        NOT AVBL
BOONE          NOT AVBL
ASHEVILLE      NOT AVBL

.....................REST OF SOUTH CAROLINA.....................

.........EASTERN SC.........

CITY           SKY/WX    TMP DP  RH WIND       PRES   REMARKS
CHARLESTON     MOSUNNY   69  60  73 NE5       30.36R
BEAUFORT MCAS  SUNNY     71  63  75 NE6       30.35R
HILTON HEAD    SUNNY     75  63  64 NE7       30.34S

.........CENTRAL SC.........

CITY           SKY/WX    TMP DP  RH WIND       PRES   REMARKS
COLUMBIA       PTSUNNY   63  56  78 SE3       30.39R
ORANGEBURG     SUNNY     66  60  81 NE5       30.39R
SUMTER SHAW    SUNNY     64  59  86 NE6       30.38S

.........WESTERN SC.........

CITY           SKY/WX    TMP DP  RH WIND       PRES   REMARKS
GREENVILLE     NOT AVBL
ROCK HILL      SUNNY     62  56  80 CALM      30.43R
ANDERSON       MOSUNNY   62  55  77 NE3       30.40S
CLEMSON        NOT AVBL
GREENWOOD      MOSUNNY   58  55  90 NE3       30.41R


...................COASTAL AND OFFSHORE REPORTS..................

................LOCAL PIERS AND NC RESERVE................


STATION/POSITION TIME  SKY/WX   TEMP    WIND        PRES    VSBY
                                AIR SEA DIR/SP/G
                 (UTC)          (F)     (DEG/KT/KT) (MB)    (MI)
JOHNY MRCER PIER 1100            74 77  120/ 10/ 11 1028.4R
NC RESRV MASNBRO NOT AVBL
OCEAN CREST PIER 1102            67 74   10/  5/  7 1028.0R
SPRINGMAID  PIER 1100            74 74   90/ 13/ 14 1028.5R


................COASTAL AND OFFSHORE BUOYS................


STATION/POSITION TIME  SKY/WX   TEMP    WIND        PRES    VSBY
                                AIR SEA DIR/SP/G
                 (UTC)          (F)     (DEG/KT/KT) (MB)    (MI)
DIMNDSHOAL 41025 1150            73 77   60/  4/  6 1029.8R
WVE H/P(F/S)=  2/ 6 WND WVE H/P(F/S)=  2/ 4 SWL H/P/D(F/S/D)=  2/ 60/ 6

CAPE LOOKOUT     1200            74      70/  3/  4 1029.4R
ONSLOW BAY 41036 NOT AVBL
5 WRITEBCH 41038 1108            75 76  130/ 10/ 14 1029.0R
MASONBORO  41110 1119               76                N/A
WVE H/P(F/S)=  3/ 5 WND WVE H/P(F/S)=  3/ 5

WILM HARBR 41108 1111               75                N/A
WVE H/P(F/S)=  3/ 6 WND WVE H/P(F/S)=  3/ 6

27WRITEBCH 41037 1100            72 76  110/ 10/ 12   N/A
FRYING PAN 41013 1150            75 73  110/ 12/ 14 1029.2R
WVE H/P(F/S)=  4/ 6 WND WVE H/P(F/S)=  3/ 5 SWL H/P/D(F/S/D)=  3/120/ 6

SUNST NRSH 41024 1108            74     120/ 12/ 16 1028.3R
CAPRS NRSH 41029 1108            74     110/ 14/ 19 1027.8R
EDISTO     41004 1150            75 75   90/ 16/ 17 1027.0R
WVE H/P(F/S)=  5/ 7 WND WVE H/P(F/S)=  5/ 7 SWL H/P/D(F/S/D)=  2/11



..........OFFSHORE BUOYS BEYOND 100 NM OFFSHORE...........
.....IN A TRIANGLE---HAT TO BERMUDA TO BAHAMAS TO HAT.....


STATION/POSITION TIME  SKY/WX   TEMP    WIND        PRES    VSBY
                                AIR SEA DIR/SP/G
                 (UTC)          (F)     (DEG/KT/KT) (MB)    (MI)
150E HAT   41001 NOT AVBL
W BERMUDA  41048 1150            68 73   70/ 14/ 16 1027.3R
WVE H/P(F/S)=  4/ 5 WND WVE H/P(F/S)=  3/ 5 SWL H/P/D(F/S/D)=  2/340/ 7

ATLANTIC S 41049 1150            76 78   50/ 10/ 12 1023.6S
WVE H/P(F/S)=  3/10 WND WVE H/P(F/S)=  2/ 4 SWL H/P/D(F/S/D)=  3/330/10

E BAHAMAS  41046 1150            80 81   80/ 14/ 17 1021.4R
WVE H/P(F/S)=  4/ 6 WND WVE H/P(F/S)=  3/ 6 SWL H/P/D(F/S/D)=  2/ 60/ 9

NE BAHAMAS 41047 1150            78 78   70/ 12/ 14 1023.3R
WVE H/P(F/S)=  4/ 8 WND WVE H/P(F/S)=  2/ 4 SWL H/P/D(F/S/D)=  3/340/ 8

120E CANVRL41010 1120            73 80   50/  6/ 10 1024.0R

END


USA.gov is the U.S. government's official web portal to all federal, state and local government web resources and services.